Waarnemingen

Advertentie
Mijn weer
South Uist Range, Groot Brittannië (3023): temperatuur & dauwpunt: 14.06.2018 16:00:00 - 20.06.2018 16:00:00 (BST)South Uist Range, Groot Brittannië (3023): temperatuur -20cm: 14.06.2018 16:00:00 - 20.06.2018 16:00:00 (BST)South Uist Range, Groot Brittannië (3023): windsnelheid & windstoten: 14.06.2018 16:00:00 - 20.06.2018 16:00:00 (BST)South Uist Range, Groot Brittannië (3023): windrichting: 14.06.2018 16:00:00 - 20.06.2018 16:00:00 (BST)South Uist Range, Groot Brittannië (3023): luchtdruk: 14.06.2018 16:00:00 - 20.06.2018 16:00:00 (BST)South Uist Range, Groot Brittannië (3023): zicht: 14.06.2018 16:00:00 - 20.06.2018 16:00:00 (BST)South Uist Range, Groot Brittannië (3023): neerslag: 14.06.2018 16:00:00 - 20.06.2018 16:00:00 (BST)
Datum & Tijd tt [°C] td [°C] tt -20cm [°C] ff [km/u] ff [kn] fx [km/u] fx [kn] dd ppp [hPa] vv [km] rr [mm]
20.06.2018 16:00:00 10,4 8,1 - 28 15 - - WZW 1016,9 21 -
20.06.2018 15:00:00 11,0 6,8 - 37 20 48 26 W 1017,1 24 0,0
20.06.2018 14:00:00 11,6 7,4 - 21 11 52 28 W 1016,9 27 0,2
20.06.2018 13:00:00 12,0 6,6 - 28 15 - - W 1016,7 28 0,0
20.06.2018 12:00:00 12,6 6,7 - 26 14 - - W 1016,4 35 0,0
20.06.2018 11:00:00 12,1 5,5 - 28 15 - - W 1016,2 35 0,0
20.06.2018 10:00:00 12,0 6,6 13,2 24 13 - - W 1015,8 30 0,0
20.06.2018 09:00:00 11,7 6,6 - 18 10 - - WNW 1015,5 27 0,0
20.06.2018 08:00:00 11,2 5,5 - 16 9 - - NW 1014,8 35 0,0
20.06.2018 07:00:00 9,9 6,2 - 21 11 - - NW 1014,0 50 0,0
20.06.2018 06:00:00 10,1 7,1 - 11 6 - - NNW 1013,2 26 0,0
20.06.2018 05:00:00 9,4 7,1 - 13 7 - - N 1013,0 30 0,2
20.06.2018 04:00:00 9,9 7,9 - 11 6 - - NW 1012,8 15 0,0
20.06.2018 03:00:00 9,6 7,6 - 11 6 - - NNW 1012,5 16 0,2
20.06.2018 02:00:00 9,7 7,1 - 8 4 - - N 1012,5 30 0,0
20.06.2018 01:00:00 9,4 5,9 - 5 3 - - NO 1012,9 40 0,0
20.06.2018 00:00:00 10,0 5,8 - 8 4 - - ONO 1013,4 30 0,0
19.06.2018 23:00:00 9,0 6,3 - 4 2 - - Z 1013,8 22 0,0
19.06.2018 22:00:00 9,6 6,4 - 11 6 - - Z 1013,9 25 0,0
19.06.2018 21:00:00 10,5 7,2 - 16 9 - - Z 1013,9 13 0,0
19.06.2018 20:00:00 11,7 7,2 - 9 5 - - ZW 1014,4 22 0,0
19.06.2018 19:00:00 11,8 7,3 - 16 9 - - ZW 1015,0 22 0,0
19.06.2018 18:00:00 11,8 7,3 - 18 10 - - ZW 1015,1 29 0,0
19.06.2018 17:00:00 12,0 7,7 - 22 12 - - ZW 1015,7 20 0,0
19.06.2018 16:00:00 12,3 8,0 - 22 12 - - ZW 1015,7 11 0,0
19.06.2018 15:00:00 12,9 8,1 - 24 13 - - WZW 1016,2 22 0,0
19.06.2018 14:00:00 12,8 7,8 - 26 14 - - WZW 1016,0 18 0,0
19.06.2018 13:00:00 13,0 8,3 - 29 16 - - WZW 1016,0 13 0,0
19.06.2018 12:00:00 13,1 8,2 - 31 17 - - WZW 1015,8 12 0,0
19.06.2018 11:00:00 12,8 8,1 - 29 16 - - WZW 1015,5 21 0,0
19.06.2018 10:00:00 11,8 7,1 13,2 34 18 48 26 WZW 1015,2 19 0,0
19.06.2018 09:00:00 11,5 7,5 - 37 20 46 25 WZW 1014,9 11 0,0
19.06.2018 08:00:00 11,6 7,2 - 35 19 50 27 WZW 1014,6 19 0,0
19.06.2018 07:00:00 10,6 7,5 - 41 22 55 30 WZW 1014,0 19 0,0
19.06.2018 06:00:00 10,9 6,9 - 41 22 55 30 W 1013,6 13 0,0
19.06.2018 05:00:00 10,9 6,5 - 41 22 59 32 W 1013,0 18 0,0
19.06.2018 04:00:00 10,7 5,9 - 42 23 63 34 W 1012,6 15 0,0
19.06.2018 03:00:00 10,8 5,1 - 46 25 63 34 W 1012,0 11 0,0
19.06.2018 02:00:00 10,9 6,0 - 48 26 61 33 W 1011,5 14 0,0
19.06.2018 01:00:00 - - - - - - - - - - -
19.06.2018 00:00:00 - - - - - - - - - - -
18.06.2018 23:00:00 - - - - - - - - - - -
18.06.2018 22:00:00 - - - - - - - - - - -
18.06.2018 21:00:00 - - - - - - - - - - -
18.06.2018 20:00:00 - - - - - - - - - - -
18.06.2018 19:00:00 12,4 7,6 - 50 27 67 36 WZW 1007,9 11 0,0
18.06.2018 18:00:00 11,9 7,0 - 52 28 68 37 WZW 1007,5 8 0,0
18.06.2018 17:00:00 12,4 7,5 - 52 28 67 36 WZW 1007,4 10 0,0
18.06.2018 16:00:00 12,6 8,9 - 48 26 72 39 WZW 1007,3 20 0,4
18.06.2018 15:00:00 12,6 8,1 - 55 30 74 40 WZW 1007,1 27 0,2
18.06.2018 14:00:00 10,6 7,7 - 50 27 67 36 WZW 1007,1 5 0,0
18.06.2018 13:00:00 12,7 7,8 - 48 26 63 34 ZW 1006,9 25 0,0
18.06.2018 12:00:00 12,8 9,1 - 46 25 63 34 ZW 1006,8 12 0,0
18.06.2018 11:00:00 12,6 7,8 - 44 24 61 33 ZW 1006,8 10 0,0
18.06.2018 10:00:00 12,2 8,8 13,7 42 23 55 30 ZW 1006,8 13 0,0
18.06.2018 09:00:00 11,4 8,6 - 46 25 63 34 ZW 1006,7 13 0,0
18.06.2018 08:00:00 11,8 8,2 - 41 22 59 32 ZW 1006,3 18 0,0
18.06.2018 07:00:00 11,7 6,9 - 44 24 59 32 WZW 1006,1 18 0,0
18.06.2018 06:00:00 11,7 6,9 - 41 22 55 30 WZW 1006,2 16 0,0
18.06.2018 05:00:00 11,6 7,7 - 41 22 59 32 ZW 1006,0 17 0,0
18.06.2018 04:00:00 11,6 7,6 - 46 25 67 36 WZW 1005,6 11 0,0
18.06.2018 03:00:00 11,5 8,1 - 41 22 57 31 WZW 1005,3 12 0,0
18.06.2018 02:00:00 11,8 8,2 - 44 24 57 31 WZW 1005,1 9 0,0
18.06.2018 01:00:00 11,9 9,3 - 41 22 54 29 ZW 1004,9 9 0,0
18.06.2018 00:00:00 11,7 9,4 - 37 20 50 27 WZW 1004,7 9 0,0
17.06.2018 23:00:00 11,6 10,4 - 35 19 50 27 WZW 1004,3 15 0,2
17.06.2018 22:00:00 11,7 11,0 - 37 20 55 30 ZW 1003,9 8 0,0
17.06.2018 21:00:00 12,0 11,6 - 35 19 55 30 ZW 1003,2 10 0,0
17.06.2018 20:00:00 12,4 12,0 - 35 19 48 26 ZW 1002,6 7 0,0
17.06.2018 19:00:00 12,5 12,3 - 37 20 54 29 ZW 1002,6 3,8 0,2
17.06.2018 18:00:00 12,7 12,2 - 41 22 59 32 Z 1001,9 4,5 0,2
17.06.2018 17:00:00 12,2 11,3 - 37 20 55 30 Z 1002,7 3,1 0,2
17.06.2018 16:00:00 12,6 10,5 - 39 21 54 29 Z 1003,4 14 0,0
17.06.2018 15:00:00 13,1 10,0 - 35 19 52 28 Z 1004,2 14 0,0
17.06.2018 14:00:00 13,1 9,7 - 35 19 46 25 Z 1004,5 11 0,0
17.06.2018 13:00:00 13,6 10,4 - 26 14 - - ZZW 1005,1 16 0,0
17.06.2018 12:00:00 13,7 11,1 - 31 17 - - ZZW 1005,5 17 0,0
17.06.2018 11:00:00 13,5 11,0 - 28 15 - - ZZW 1005,7 18 0,0
17.06.2018 10:00:00 13,0 11,1 13,7 26 14 - - ZZW 1005,7 14 0,0
17.06.2018 09:00:00 12,4 10,6 - 29 16 - - ZW 1005,6 20 0,0
17.06.2018 08:00:00 12,4 10,9 - 29 16 - - ZW 1005,2 12 0,0
17.06.2018 07:00:00 11,9 10,8 - 28 15 - - ZZW 1005,0 11 0,0
17.06.2018 06:00:00 11,1 10,0 - 26 14 - - ZZW 1005,2 16 0,0
17.06.2018 05:00:00 10,7 9,9 - 18 10 - - ZZO 1005,4 28 0,2
17.06.2018 04:00:00 10,9 9,3 - 21 11 - - Z 1005,7 18 0,0
17.06.2018 03:00:00 10,2 8,9 - 15 8 - - ZZO 1006,1 30 0,0
17.06.2018 02:00:00 8,0 6,9 - 15 8 - - ZZO 1006,3 16 0,0
17.06.2018 01:00:00 7,5 6,6 - 15 8 - - ZZO 1006,7 16 0,0
17.06.2018 00:00:00 8,3 7,0 - 15 8 - - Z 1006,9 13 0,0
16.06.2018 23:00:00 10,5 8,2 - 18 10 - - ZW 1006,9 18 0,0
16.06.2018 22:00:00 10,7 8,2 - 9 5 - - ZW 1006,3 15 0,0
16.06.2018 21:00:00 12,3 8,9 - 9 5 - - W 1006,2 10 0,0
16.06.2018 20:00:00 12,8 9,1 - 18 10 - - WZW 1006,4 30 0,0
16.06.2018 19:00:00 13,3 9,7 - 15 8 - - WZW 1005,8 19 0,0
16.06.2018 18:00:00 13,6 10,3 - 15 8 - - W 1005,5 26 0,0
16.06.2018 17:00:00 13,6 10,4 - 15 8 - - W 1005,4 12 0,0
16.06.2018 16:00:00 13,7 10,4 - 16 9 - - W 1004,9 15 0,0
16.06.2018 15:00:00 13,2 9,4 - 18 10 - - W 1004,6 25 0,0
16.06.2018 14:00:00 13,5 9,7 - 21 11 - - WZW 1004,2 16 0,0
16.06.2018 13:00:00 13,8 11,0 - 16 9 - - WZW 1003,7 12 0,0
16.06.2018 12:00:00 13,4 11,0 - 15 8 - - ZW 1003,5 10 0,0
16.06.2018 11:00:00 12,0 11,2 - 21 11 - - Z 1003,3 18 1,0
16.06.2018 10:00:00 11,4 10,5 13,7 26 14 - - ZZO 1003,2 9 0,8
16.06.2018 09:00:00 11,2 10,2 - 35 19 52 28 ZZO 1003,2 23 1,2
16.06.2018 08:00:00 11,0 10,0 - 35 19 54 29 ZZO 1003,2 5 2,2
16.06.2018 07:00:00 10,7 9,5 - 42 23 57 31 ZZO 1003,2 5 2,2
16.06.2018 06:00:00 10,9 9,5 - 31 17 50 27 ZZO 1003,7 9 1,2
16.06.2018 05:00:00 10,8 9,5 - 35 19 46 25 ZO 1004,2 9 1,8
16.06.2018 04:00:00 10,8 9,1 - 31 17 52 28 ZO 1005,1 17 0,2
16.06.2018 03:00:00 10,2 8,3 - 22 12 - - ZZO 1005,6 24 0,0
16.06.2018 02:00:00 10,2 8,5 - 22 12 - - ZZO 1006,4 40 0,0
16.06.2018 01:00:00 9,2 8,0 - 16 9 - - ZZO 1007,2 35 0,0
16.06.2018 00:00:00 9,8 8,4 - 15 8 - - ZZO 1007,7 14 0,0
15.06.2018 23:00:00 9,1 7,5 - 15 8 - - ZZO 1008,1 24 0,0
15.06.2018 22:00:00 11,0 8,4 - 22 12 - - Z 1008,3 15 0,0
15.06.2018 21:00:00 11,5 9,0 - 26 14 - - ZZW 1008,5 16 0,0
15.06.2018 20:00:00 11,9 8,4 - 26 14 - - ZW 1008,5 20 0,0
15.06.2018 19:00:00 12,7 9,4 - 26 14 - - ZZW 1008,3 30 0,0
15.06.2018 18:00:00 13,0 8,9 - 28 15 - - ZW 1008,3 24 0,0
15.06.2018 17:00:00 12,9 9,7 - 28 15 - - ZW 1008,7 45 0,0
15.06.2018 16:00:00 13,6 9,7 - 31 17 - - ZW 1008,6 13 0,0
15.06.2018 15:00:00 13,8 10,5 - 28 15 - - ZW 1008,6 30 0,0
15.06.2018 14:00:00 13,4 10,1 - 28 15 - - ZW 1008,4 19 0,0
15.06.2018 13:00:00 13,0 9,6 - 29 16 - - ZW 1008,1 45 0,0
15.06.2018 12:00:00 12,4 9,5 - 29 16 - - ZW 1007,8 29 0,0
15.06.2018 11:00:00 12,2 8,7 - 28 15 - - ZW 1007,5 30 0,0
15.06.2018 10:00:00 9,9 8,1 13,5 29 16 - - W 1007,3 13 0,8
15.06.2018 09:00:00 12,0 9,1 - 28 15 - - ZW 1006,9 26 0,0
15.06.2018 08:00:00 11,9 9,7 - 28 15 - - ZW 1006,5 16 0,0
15.06.2018 07:00:00 11,5 9,5 - 34 18 - - WZW 1006,0 13 0,0
15.06.2018 06:00:00 11,3 9,3 - 31 17 48 26 WZW 1005,6 11 0,0
15.06.2018 05:00:00 11,3 9,0 - 37 20 48 26 WZW 1005,3 12 0,0
15.06.2018 04:00:00 11,3 9,1 - 37 20 46 25 WZW 1005,3 16 0,0
15.06.2018 03:00:00 11,2 9,2 - 34 18 - - WZW 1005,1 23 0,0
15.06.2018 02:00:00 11,0 9,3 - 31 17 - - ZW 1004,8 19 0,0
15.06.2018 01:00:00 10,9 8,8 - 37 20 46 25 ZW 1004,9 16 0,0
15.06.2018 00:00:00 10,3 9,0 - 35 19 52 28 WZW 1004,9 6 0,2
14.06.2018 23:00:00 10,7 8,5 - 34 18 - - ZW 1004,6 20 0,0
14.06.2018 22:00:00 11,2 8,9 - 35 19 48 26 WZW 1004,5 10 0,0
14.06.2018 21:00:00 11,6 8,3 - 39 21 55 30 WZW 1004,2 20 0,0
14.06.2018 20:00:00 11,6 7,9 - 39 21 59 32 WZW 1003,6 11 0,0
14.06.2018 19:00:00 12,3 7,8 - 46 25 63 34 W 1003,0 13 0,0
14.06.2018 18:00:00 12,2 8,4 - 44 24 68 37 W 1002,4 9 0,0
14.06.2018 17:00:00 12,6 8,4 - 46 25 68 37 WZW 1001,6 12 0,0
14.06.2018 16:00:00 11,8 8,5 - 55 30 72 39 W 1000,9 19 0,0

tt = temperatuur
td = dauwpunt
tt -20cm = temperatuur -20cm
ff = windsnelheid
fx = windstoten
dd = windrichting
ppp = luchtdruk
vv = zicht
rr = neerslag

Weerstations in de omgeving